Home   Weather   Saint-Petersburg   Past weeks

Flag for Russia Past Weather in Saint-Petersburg, Russia — Yesterday and Last 2 Weeks

32 °F

Broken clouds.

Feels Like: 22 °F
Forecast: 33 / 37 °F
Wind: 13 mph from Southeast

Location: St. Petersburg

Current Time: Oct 25, 2016 at 9:52:13 AM

Latest Report: Oct 25, 2016 at 9:00 AM

Visibility: N/A

Pressure: 30.51 "Hg

Humidity: 75%

Dew Point: 25 °F

Location of Saint-PetersburgLocation

Past Weather in Saint-Petersburg — Graph


Saint-Petersburg Temperature Yesterday

Maximum temperature yesterday: 45 °F (at 3:00 PM)
Minimum temperature yesterday: 32 °F (at 7:00 AM)
Average temperature yesterday: 38 °F

High & Low Weather Summary for the Past Weeks

High46 °F (Oct 16, 2:30 PM)100% (Oct 13, 10:00 PM)30.80 "Hg (Oct 13, 10:00 PM)
Low23 °F (Oct 19, 7:00 AM)49% (Oct 24, 3:30 PM)30.45 "Hg (Oct 13, 6:30 AM)
Average37 °F79%30.59 "Hg
* Reported Oct 10 8:00 AM — Oct 25 8:30 AM, Saint-Petersburg, Weather by CustomWeather, © 2016

Note: Actual official high and low records may vary slightly from our data, if they occured in-between our weather recording intervals... More about our weather records


Saint-Petersburg Weather History for the Previous 24 Hours

Scroll right to see more
Time TempWeatherWind HumidityBarometerVisibility
8:30 AM
Tue, Oct 25
30 °FSunny.13 mph75%30.51 "Hg10 mi
8:00 AM30 °FClear.10 mph75%30.54 "Hg10 mi
7:30 AM28 °FClear.10 mph80%30.54 "Hg10 mi
7:00 AM28 °FClear.8 mph80%30.54 "Hg10 mi
6:30 AM28 °FClear.8 mph80%30.57 "Hg10 mi
6:00 AM28 °FClear.8 mph80%30.57 "Hg10 mi
5:30 AM30 °FClear.10 mph75%30.60 "Hg10 mi
5:00 AM30 °FClear.8 mph75%30.60 "Hg10 mi
4:30 AM32 °FClear.10 mph75%30.63 "Hg10 mi
4:00 AM32 °FPassing clouds.10 mph69%30.63 "HgN/A
3:30 AM32 °FClear.10 mph75%30.63 "Hg10 mi
3:00 AM32 °FClear.8 mph75%30.66 "Hg10 mi
2:30 AM32 °FClear.8 mph75%30.66 "Hg10 mi
2:00 AM32 °FClear.8 mph75%30.69 "Hg10 mi
1:30 AM32 °FClear.8 mph75%30.69 "Hg10 mi
1:00 AM32 °FClear.10 mph75%30.69 "Hg10 mi
12:30 AM32 °FClear.8 mph75%30.69 "Hg10 mi
12:00 AM34 °FClear.10 mph70%30.72 "Hg10 mi
11:30 PM
Mon, Oct 24
34 °FClear.8 mph75%30.72 "Hg10 mi
11:00 PM34 °FClear.8 mph75%30.72 "Hg10 mi
10:30 PM36 °FClear.8 mph70%30.72 "Hg10 mi
10:00 PM36 °FClear.8 mph70%30.72 "Hg10 mi
9:30 PM36 °FClear.8 mph70%30.72 "Hg10 mi
9:00 PM36 °FClear.10 mph70%30.72 "Hg10 mi
8:30 PM36 °FClear.8 mph70%30.72 "Hg10 mi
8:00 PM36 °FClear.10 mph70%30.74 "Hg10 mi
7:30 PM36 °FClear.10 mph65%30.74 "Hg10 mi
7:00 PM36 °FClear.8 mph65%30.74 "Hg10 mi
6:30 PM37 °FClear.10 mph65%30.74 "Hg10 mi
6:00 PM37 °FClear.10 mph60%30.74 "Hg10 mi
5:30 PM37 °FClear.8 mph65%30.74 "Hg10 mi
5:00 PM41 °FSunny.10 mph57%30.74 "Hg10 mi
4:30 PM41 °FSunny.13 mph57%30.74 "Hg10 mi
4:00 PM43 °FSunny.15 mph53%30.74 "Hg10 mi
3:30 PM45 °FSunny.13 mph49%30.74 "Hg10 mi
3:00 PM45 °FSunny.13 mph53%30.74 "Hg10 mi
2:30 PM43 °FPassing clouds.13 mph57%30.74 "HgN/A
2:00 PM43 °FSunny.13 mph57%30.77 "Hg10 mi
1:30 PM43 °FPassing clouds.15 mph57%30.77 "HgN/A
1:00 PM43 °FPassing clouds.15 mph61%30.77 "HgN/A
12:30 PM41 °FPassing clouds.15 mph66%30.77 "HgN/A
12:00 PM41 °FSunny.13 mph66%30.77 "Hg10 mi
11:30 AM39 °FSunny.13 mph65%30.77 "Hg10 mi
11:00 AM39 °FSunny.10 mph70%30.80 "Hg10 mi
10:30 AM39 °FSunny.13 mph70%30.77 "Hg10 mi
10:00 AM37 °FSunny.13 mph75%30.77 "Hg10 mi
9:30 AM37 °FPassing clouds.10 mph75%30.77 "HgN/A
9:00 AM37 °FSunny.10 mph75%30.77 "Hg10 mi
Weather by CustomWeather, © 2016

See weather overviewHow to use our weather pages